Date,TemperatureHighF,TemperatureAvgF,TemperatureLowF,DewpointHighF,DewpointAvgF,DewpointLowF,HumidityHigh,HumidityAvg,HumidityLow,PressureMaxIn,PressureMinIn,WindSpeedMaxMPH,WindSpeedAvgMPH,GustSpeedMaxMPH,PrecipitationSumIn
2013-1-1,53.3,41.6,33.5,39.1,34.0,29.2,88,75,55,30.30,30.24,11,0,11,0.00
2013-1-2,56.7,40.2,28.9,37.2,31.4,25.5,90,73,42,30.28,30.16,4,0,4,0.00
2013-1-3,55.4,40.0,29.5,39.8,32.5,26.0,90,76,49,30.30,30.19,5,0,5,0.00
2013-1-4,58.1,44.6,32.6,39.2,35.0,29.4,92,71,45,30.32,30.20,6,0,6,0.00
2013-1-5,54.6,49.8,47.0,46.1,41.7,37.4,90,74,66,30.24,30.10,10,0,10,0.05
2013-1-6,48.4,45.0,38.3,44.7,41.5,35.0,91,88,81,30.22,30.08,7,0,7,0.10
2013-1-7,57.2,45.3,34.4,47.9,39.9,31.5,91,82,69,30.29,30.18,5,0,5,0.00
2013-1-8,60.4,47.5,37.5,48.4,41.1,34.6,92,79,60,30.26,30.15,5,0,5,0.00
2013-1-9,55.1,44.8,38.1,47.9,40.3,34.9,91,84,73,30.18,30.04,12,0,12,0.01
2013-1-10,51.2,42.7,35.9,38.8,34.7,31.7,90,74,55,30.23,30.10,11,0,11,0.00
2013-1-11,52.2,41.7,32.2,39.2,34.2,27.9,88,75,54,30.29,30.16,11,0,11,0.00
2013-1-12,50.5,41.9,30.1,35.6,26.5,20.8,90,58,33,30.28,30.17,6,0,6,0.00
2013-1-13,49.4,42.3,26.5,29.0,25.0,19.2,87,53,31,30.31,30.17,7,0,7,0.00
2013-1-14,50.1,36.8,26.2,25.5,21.9,15.5,83,58,29,30.44,30.26,6,0,7,0.01
2013-1-15,54.0,39.2,27.8,30.8,26.6,22.5,85,63,35,30.51,30.43,7,0,7,0.00
2013-1-16,56.9,40.4,28.6,34.9,29.5,24.2,88,67,39,30.47,30.29,4,0,4,0.00
2013-1-17,62.4,43.2,29.5,39.4,32.3,25.6,88,68,40,30.30,30.17,6,0,6,0.00
2013-1-18,64.1,45.5,31.7,41.9,34.7,28.0,90,69,38,30.26,30.15,4,0,5,0.00
2013-1-19,63.9,45.4,30.7,43.2,34.7,26.7,88,69,41,30.28,30.17,5,0,5,0.00
2013-1-20,64.9,45.7,31.4,41.0,33.4,27.7,89,66,32,30.26,30.15,4,0,4,0.00
2013-1-21,63.6,45.1,30.2,41.0,33.9,25.8,92,68,36,30.21,30.10,6,0,6,0.00
2013-1-22,61.4,46.7,32.8,42.8,36.4,28.8,89,69,41,30.13,30.02,5,0,5,0.00
2013-1-23,52.6,48.5,44.7,48.2,43.6,39.1,88,83,80,30.11,29.98,3,0,3,0.05
2013-1-24,56.4,52.2,48.9,50.9,48.3,45.7,90,87,80,30.22,30.09,4,0,4,0.02
2013-1-25,64.2,55.8,49.9,55.2,50.5,45.6,91,83,71,30.22,30.07,6,0,6,0.01
2013-1-26,59.0,49.6,42.8,47.4,41.7,37.4,90,76,51,30.12,30.04,13,0,13,0.00
2013-1-27,56.1,46.5,38.4,39.3,37.1,30.1,87,72,39,30.20,30.11,10,0,10,0.00
2013-1-28,57.9,47.0,38.0,43.5,39.0,33.6,92,75,54,30.33,30.20,9,0,9,0.00
2013-1-29,57.9,46.8,38.0,44.2,39.0,33.9,90,75,55,30.39,30.30,9,0,9,0.00
2013-1-30,67.8,50.3,37.3,45.1,38.9,33.6,90,68,40,30.37,30.28,6,0,6,0.00
2013-1-31,65.0,48.6,35.0,46.7,39.2,31.0,89,72,48,30.32,30.20,6,0,6,0.00
2013-2-1,66.5,50.4,36.6,48.1,41.1,32.8,90,72,47,30.24,30.14,7,0,7,0.00
2013-2-2,57.7,48.2,41.9,49.2,42.8,37.5,89,82,72,30.32,30.24,5,0,6,0.00
2013-2-3,58.2,48.3,39.8,45.3,40.8,36.0,89,76,57,30.29,30.17,8,0,9,0.00
2013-2-4,52.8,44.3,38.7,45.8,40.5,34.6,92,87,77,30.20,30.10,3,0,3,0.00
2013-2-5,56.2,48.9,43.2,46.2,42.6,39.0,87,79,66,30.19,30.11,12,0,12,0.00
2013-2-6,59.0,45.7,34.4,44.6,37.9,30.9,90,75,55,30.23,30.15,11,0,11,0.00
2013-2-7,58.0,44.1,34.9,47.3,36.9,30.9,90,77,45,30.21,30.03,12,0,12,0.12
2013-2-8,53.5,43.9,36.3,42.2,36.9,31.0,90,77,56,30.05,29.98,9,0,9,0.05
2013-2-9,58.6,43.3,30.6,37.7,30.1,25.3,92,63,32,30.13,30.02,8,0,8,0.00
2013-2-10,60.9,44.3,29.7,38.7,32.3,25.0,89,65,38,30.16,30.04,7,0,7,0.00
2013-2-11,63.9,46.7,31.8,38.0,31.5,27.5,88,60,28,30.27,30.10,7,0,7,0.00
2013-2-12,62.6,46.1,32.9,43.3,35.7,28.3,88,69,39,30.38,30.27,6,0,6,0.00
2013-2-13,63.9,47.7,33.4,46.1,38.2,29.4,89,71,42,30.37,30.24,7,0,7,0.00
2013-2-14,70.5,52.0,36.0,44.4,38.6,32.1,90,64,36,30.27,30.17,8,0,8,0.00
2013-2-15,73.0,54.2,37.6,46.6,40.1,32.9,87,62,32,30.29,30.22,7,0,7,0.00
2013-2-16,69.8,52.9,39.5,49.8,42.3,34.8,88,69,44,30.25,30.08,6,0,6,0.00
2013-2-17,66.0,50.2,39.5,47.3,41.2,35.7,89,73,49,30.10,29.99,7,0,7,0.00
2013-2-18,52.9,45.4,37.4,44.3,37.7,33.5,89,75,59,30.08,30.01,10,0,10,0.00
2013-2-19,48.5,43.8,37.7,42.8,37.8,32.5,88,79,70,30.02,29.80,13,0,13,0.22
2013-2-20,59.7,44.3,30.8,41.3,34.5,27.0,89,70,37,30.10,29.87,9,0,11,0.00
2013-2-21,59.8,46.5,36.9,40.7,34.7,30.7,92,66,36,30.20,30.09,11,0,11,0.00
2013-2-22,63.4,47.6,32.6,41.8,35.1,27.7,88,64,36,30.29,30.20,7,0,7,0.00
2013-2-23,59.4,49.9,40.4,44.3,38.4,33.0,83,66,42,30.29,30.19,15,0,15,0.00
2013-2-24,63.9,48.8,36.0,37.5,30.4,25.1,80,53,26,30.29,30.19,9,0,9,0.00
2013-2-25,64.0,48.2,34.9,44.9,37.8,29.8,91,69,46,30.31,30.20,10,0,10,0.00
2013-2-26,67.0,49.7,34.4,41.6,32.3,26.2,89,57,23,30.24,30.15,6,0,6,0.00
2013-2-27,67.2,51.1,33.4,45.5,37.0,27.6,87,61,32,30.40,30.24,7,0,9,0.00
2013-2-28,68.4,52.1,41.1,51.8,41.5,-99.9,96,75,52,30.48,30.40,11,-34,11,0.00
2013-3-1,72.3,26.8,46.5,53.3,-37.4,-99.9,95,26,47,30.46,30.25,7,-583,7,0.00
2013-3-2,69.5,40.0,46.7,54.1,3.7,-99.9,94,53,52,30.26,30.09,5,-304,5,0.00
2013-3-3,66.5,55.0,44.7,52.3,47.2,42.3,93,77,45,30.14,30.06,12,0,12,0.00
2013-3-4,58.9,20.6,41.2,46.2,-46.3,-99.9,93,25,61,30.18,30.09,12,-623,12,0.00
2013-3-5,61.7,38.4,38.9,46.4,8.7,-99.9,96,57,49,30.10,29.89,16,-228,16,0.08
2013-3-6,58.7,50.8,39.9,48.0,42.0,35.7,93,74,47,30.10,29.89,12,0,12,0.15
2013-3-7,60.1,47.8,38.4,45.5,40.5,34.6,96,78,41,30.03,29.88,6,0,6,0.20
2013-3-8,59.7,33.0,43.9,48.0,-7.7,-99.9,98,49,48,30.10,29.83,17,-358,17,0.00
2013-3-9,67.8,24.2,42.1,43.9,-44.2,-99.9,89,19,34,30.33,30.10,10,-602,10,0.00
2013-3-10,71.7,39.4,45.9,47.4,-9.1,-99.9,89,33,29,30.37,30.27,6,-356,6,0.00
2013-3-11,74.3,53.8,37.5,49.3,41.7,33.1,90,67,32,30.29,30.13,10,0,10,0.00
2013-3-12,72.5,55.9,42.1,52.7,46.2,37.8,92,72,45,30.19,30.08,7,0,7,0.00
2013-3-13,76.0,58.5,42.0,54.7,47.7,38.2,90,70,43,30.19,30.07,7,0,7,0.00
2013-3-14,72.3,56.6,45.1,53.4,45.2,-99.9,89,69,34,30.19,30.11,6,0,6,0.00
2013-3-15,72.7,54.9,41.0,51.7,44.3,36.4,89,70,40,30.16,30.07,6,0,6,0.00
2013-3-16,73.4,57.0,46.6,52.7,45.1,37.1,89,67,32,30.14,30.06,14,1,14,0.00
2013-3-17,68.3,54.8,40.9,45.7,40.5,35.5,86,61,36,30.18,30.07,10,0,10,0.00
2013-3-18,64.7,52.7,39.3,49.5,42.5,34.6,88,69,52,30.16,30.06,9,0,9,0.00
2013-3-19,69.8,54.4,43.3,49.5,42.8,37.6,85,67,38,30.16,30.08,10,0,10,0.06
2013-3-20,66.5,56.3,49.7,55.4,49.6,45.4,90,79,61,30.17,30.09,11,1,11,0.05
2013-3-21,65.8,53.7,44.5,48.7,41.7,38.2,83,66,42,30.17,30.04,9,0,9,0.00
2013-3-22,69.5,52.7,38.1,43.5,34.0,26.6,89,55,22,30.14,30.05,11,0,11,0.00
2013-3-23,70.2,53.4,37.8,43.5,35.0,27.0,87,55,23,30.17,30.06,9,0,9,0.00
2013-3-24,68.5,53.5,39.3,49.9,42.4,34.8,89,68,44,30.12,29.99,9,0,9,0.00
2013-3-25,61.4,50.2,40.0,47.2,41.3,35.9,89,73,56,30.06,29.98,12,0,12,0.00
2013-3-26,65.2,53.5,43.3,48.8,42.9,38.5,86,68,53,30.05,29.95,9,0,9,0.00
2013-3-27,67.6,56.4,46.9,53.6,47.9,41.8,86,74,57,30.04,29.98,12,1,12,0.00
2013-3-28,71.3,60.1,54.4,56.2,52.0,48.7,88,75,55,30.11,30.03,11,0,11,0.01
2013-3-29,76.5,61.0,48.9,55.3,50.5,44.9,90,70,45,30.11,30.02,10,0,10,0.00
2013-3-30,70.7,60.0,53.3,56.2,51.7,48.6,87,75,50,30.10,29.98,9,0,9,0.03
2013-3-31,70.1,59.2,50.8,56.8,50.2,47.1,90,73,51,30.08,30.02,13,0,13,0.11
2013-4-1,69.5,58.8,51.3,54.5,50.5,45.3,90,75,54,30.18,30.07,9,0,9,0.18
2013-4-2,69.5,56.1,44.1,55.1,47.8,40.3,90,75,57,30.21,30.11,10,0,10,0.00
2013-4-3,76.4,59.3,51.1,55.9,49.3,45.9,87,72,42,30.18,30.00,10,0,10,0.00
2013-4-4,67.8,58.3,52.4,56.7,51.8,47.2,90,80,63,30.15,30.03,14,0,14,0.25
2013-4-5,67.5,58.8,51.4,54.3,49.9,45.5,87,73,57,30.22,30.15,11,0,11,0.00
2013-4-6,68.3,57.1,50.4,54.3,48.9,45.1,88,75,58,30.23,30.17,8,0,8,0.00
2013-4-7,69.5,56.5,49.2,54.7,48.0,44.3,87,74,51,30.22,29.91,17,1,17,0.02
2013-4-8,66.7,54.9,47.2,48.2,39.7,33.4,85,58,34,30.05,29.88,23,2,23,0.00
2013-4-9,75.3,61.0,47.3,42.4,39.9,35.9,75,49,27,30.11,30.05,16,1,16,0.00
2013-4-10,85.5,64.7,47.1,54.0,46.2,40.6,85,55,29,30.20,30.08,13,1,13,0.00
2013-4-11,72.8,60.2,49.4,51.1,44.7,40.1,78,58,34,30.12,29.88,10,0,10,0.00
2013-4-12,72.8,57.1,42.5,54.3,44.7,37.7,88,65,39,29.96,29.86,10,0,10,0.00
2013-4-13,70.5,55.5,44.3,51.0,42.5,38.0,87,64,42,29.94,29.88,12,0,12,0.00
2013-4-14,70.3,53.9,40.0,45.1,40.1,35.3,87,62,33,29.97,29.91,14,1,14,0.00
2013-4-15,61.1,51.2,44.2,46.3,39.0,33.3,81,64,43,30.00,29.90,26,1,26,0.00
2013-4-16,67.5,52.3,36.3,41.5,34.8,29.7,87,55,26,30.18,30.00,13,1,13,0.00
2013-4-17,69.5,56.3,42.5,38.1,34.7,27.9,75,48,22,30.29,30.18,14,1,15,0.00
2013-4-18,76.8,59.2,40.5,45.1,37.8,31.8,81,50,22,30.29,30.20,10,0,10,0.00
2013-4-19,80.8,61.8,44.2,55.3,45.5,38.2,87,58,32,30.26,30.10,13,0,13,0.00
2013-4-20,80.0,63.2,46.5,50.2,45.0,41.1,86,55,29,30.14,30.00,9,0,9,0.00
2013-4-21,84.8,66.2,46.4,52.8,46.1,41.0,87,54,25,30.08,29.94,7,0,7,0.00
2013-4-22,87.3,71.9,52.1,54.7,47.6,40.6,82,46,20,30.00,29.85,10,0,10,0.00
2013-4-23,82.3,63.7,48.3,53.5,43.3,29.2,84,54,17,29.96,29.88,11,0,11,0.00
2013-4-24,69.7,58.0,46.4,53.1,47.5,40.9,85,69,51,29.98,29.86,12,0,12,0.00
2013-4-25,71.0,59.1,50.4,53.1,48.2,44.6,84,68,50,30.17,29.98,13,1,13,0.00
2013-4-26,66.9,57.1,48.9,52.0,47.3,42.7,83,70,58,30.26,30.17,10,0,10,0.00
2013-4-27,69.8,56.7,45.1,54.1,47.7,40.5,87,73,55,30.27,30.12,11,0,11,0.00
2013-4-28,80.2,63.2,46.7,57.0,50.5,42.0,88,66,41,30.12,29.90,9,0,9,0.00
2013-4-29,89.3,70.1,52.6,60.3,50.8,45.8,87,55,25,29.93,29.78,9,0,9,0.00
2013-4-30,82.3,66.0,50.7,53.4,46.5,40.3,84,54,24,29.88,29.81,9,0,9,0.00
2013-5-1,85.0,68.0,48.0,48.9,39.3,28.4,66,41,16,30.11,29.87,8,0,8,0.00
2013-5-2,91.0,70.9,49.4,49.3,41.1,31.0,75,41,16,30.18,30.08,9,0,9,0.00
2013-5-3,89.7,70.1,50.6,52.3,43.0,35.8,69,42,17,30.12,29.82,10,0,10,0.00
2013-5-4,87.9,67.3,51.4,59.5,48.3,41.3,76,53,25,29.82,29.57,10,0,10,0.00
2013-5-5,70.3,61.6,53.4,51.3,47.2,43.1,71,60,46,29.83,29.63,16,1,16,0.00
2013-5-6,72.3,61.8,51.5,52.1,48.6,45.2,83,63,47,29.99,29.83,8,0,9,0.00
2013-5-7,71.8,62.4,53.0,55.3,49.4,45.3,82,63,46,30.08,29.98,10,0,10,0.00
2013-5-8,67.5,58.1,51.0,53.3,49.0,44.8,86,73,55,30.19,30.08,12,0,12,0.00
2013-5-9,69.3,58.3,50.3,52.9,48.0,44.2,83,70,53,30.23,30.12,12,1,12,0.00
2013-5-10,69.5,59.0,51.0,56.0,49.7,44.9,82,72,58,30.24,30.15,11,0,11,0.00
2013-5-11,78.8,63.6,51.7,60.1,52.7,45.8,86,69,46,30.20,30.07,9,0,9,0.00
2013-5-12,82.0,65.5,50.4,61.6,51.9,45.2,89,64,36,30.18,30.06,10,1,10,0.00
2013-5-13,77.3,63.0,48.8,58.5,50.6,43.9,88,66,44,30.14,29.99,11,0,11,0.00
2013-5-14,78.0,62.2,50.4,55.5,47.4,41.3,85,61,36,30.07,29.97,9,0,9,0.00
2013-5-15,70.3,58.4,46.3,49.8,44.4,40.1,84,61,39,30.10,30.06,11,0,11,0.00
2013-5-16,71.5,59.8,52.4,56.2,49.6,44.6,83,70,48,30.08,30.01,12,0,12,0.01
2013-5-17,70.8,57.8,47.1,49.6,45.2,41.2,87,65,40,30.14,30.03,12,0,12,0.00
2013-5-18,74.5,59.9,43.7,53.3,45.8,38.7,87,62,39,30.18,30.12,13,1,13,0.00
2013-5-19,83.3,66.2,47.6,52.3,44.8,40.7,84,50,24,30.16,29.99,10,0,10,0.00
2013-5-20,89.6,68.7,49.0,55.4,44.5,37.0,84,48,17,30.03,29.94,13,1,13,0.00
2013-5-21,72.3,59.6,51.2,53.4,44.7,37.4,82,60,33,30.04,29.95,15,1,15,0.00
2013-5-22,68.0,54.9,45.0,40.5,37.3,27.2,73,54,24,30.06,29.97,15,1,15,0.00
2013-5-23,69.5,56.2,46.1,46.9,40.9,36.5,78,58,41,30.04,29.97,13,1,13,0.00
2013-5-24,73.9,56.1,41.8,49.7,41.1,35.5,84,59,32,30.04,29.99,10,0,10,0.00
2013-5-25,68.3,55.8,44.3,47.6,43.9,38.8,86,66,45,30.11,30.02,15,1,15,0.00
2013-5-26,72.8,61.1,51.8,55.1,50.2,44.7,82,69,48,30.18,30.10,12,1,12,0.00
2013-5-27,66.8,59.9,51.2,55.3,51.0,45.2,84,73,61,30.18,30.03,10,0,10,0.01
2013-5-28,71.9,62.3,56.7,58.3,52.6,47.8,86,71,51,30.04,29.96,11,1,11,0.00
2013-5-29,60.1,59.4,59.0,48.7,48.2,47.8,67,66,66,29.99,29.98,1,0,6,0.00
2013-5-30,69.0,59.9,53.9,48.7,46.5,38.7,67,62,38,30.02,29.98,12,0,12,0.00
2013-5-31,89.7,67.3,46.3,54.3,46.6,39.5,84,52,24,30.05,29.92,9,0,9,0.00
2013-6-1,92.5,71.1,52.3,61.5,52.1,46.6,85,55,27,29.97,29.79,9,0,9,0.00
2013-6-2,78.7,65.0,53.9,56.8,51.7,47.0,82,63,44,29.82,29.70,9,1,9,0.00
2013-6-3,75.8,62.7,50.5,56.7,51.1,45.2,86,67,49,29.88,29.75,10,1,10,0.00
2013-6-4,73.8,63.1,55.3,56.2,52.2,48.4,82,68,52,29.99,29.88,11,1,11,0.00
2013-6-5,71.3,61.5,55.6,55.4,51.2,47.9,79,70,55,30.02,29.94,14,1,14,0.00
2013-6-6,73.0,62.2,55.2,57.5,52.6,48.1,82,72,55,29.98,29.88,9,1,9,0.00
2013-6-7,84.2,68.0,55.3,63.0,55.9,48.8,84,67,44,29.93,29.75,7,0,7,0.00
2013-6-8,82.5,68.0,56.2,63.1,56.6,51.1,87,68,48,29.82,29.73,10,1,10,0.00
2013-6-9,77.0,64.9,56.6,60.3,54.5,50.4,85,70,53,29.90,29.82,15,1,15,0.00
2013-6-10,75.0,63.9,56.2,55.6,51.6,48.0,78,65,49,29.97,29.86,15,1,15,0.00
2013-6-11,75.3,63.6,57.5,57.1,52.6,46.5,81,68,51,30.02,29.92,4,0,9,0.00
2013-6-12,80.5,63.6,48.8,55.1,46.9,40.6,87,58,33,30.05,29.94,11,1,11,0.00
2013-6-13,80.8,63.7,46.2,54.4,45.6,39.7,84,55,25,30.12,30.03,9,0,9,0.00
2013-6-14,87.7,68.0,49.4,55.1,46.8,40.6,85,52,21,30.03,29.84,11,0,11,0.00
2013-6-15,72.6,60.7,48.4,54.2,47.8,42.8,86,64,45,30.04,29.87,13,1,13,0.00
2013-6-16,79.3,63.5,48.3,56.6,50.0,43.4,87,64,41,30.12,30.04,13,1,13,0.00
2013-6-17,75.7,62.6,50.2,57.9,51.3,44.2,86,68,51,30.14,30.08,13,1,13,0.00
2013-6-18,70.9,60.7,52.3,52.4,49.3,46.9,85,67,48,30.08,30.04,16,1,16,0.00
2013-6-19,75.2,62.7,53.1,53.0,47.2,42.8,78,58,41,30.09,30.04,17,1,17,0.00
2013-6-20,80.2,62.5,46.8,55.1,45.6,40.6,84,56,30,30.05,29.97,12,1,12,0.00
2013-6-21,83.1,64.8,48.8,56.2,47.5,42.0,85,57,24,30.01,29.95,10,0,10,0.00
2013-6-22,87.7,72.8,50.2,58.9,51.2,44.3,86,52,28,29.97,29.89,9,1,9,0.00
2013-6-23,87.7,79.1,64.0,61.0,54.8,50.8,78,47,29,29.89,29.84,10,1,10,0.00
2013-6-24,66.6,62.8,60.2,60.1,57.6,55.1,87,83,75,29.94,29.82,5,0,5,0.05
2013-6-25,79.6,68.0,61.2,65.6,60.6,57.3,88,78,61,30.01,29.92,5,0,11,0.01
2013-6-26,82.8,71.8,62.9,66.7,61.0,56.2,86,70,52,30.08,30.00,13,1,13,0.00
2013-6-27,89.8,73.6,59.0,64.1,57.6,53.2,88,61,34,30.10,30.03,12,0,12,0.00
2013-6-28,93.8,75.6,58.8,66.7,59.6,53.3,87,60,38,30.06,29.91,9,0,9,0.00
2013-6-29,99.5,76.9,59.0,65.6,58.2,53.2,86,57,25,29.96,29.82,10,0,10,0.00
2013-6-30,87.0,72.5,59.0,63.3,57.7,53.2,85,62,42,29.88,29.79,9,1,9,0.00
2013-7-1,88.6,71.9,59.0,64.7,58.4,52.4,86,64,40,29.87,29.83,7,0,7,0.00
2013-7-2,85.8,70.8,62.4,65.7,59.4,55.5,82,68,48,29.95,29.85,10,1,10,0.00
2013-7-3,86.5,70.9,60.0,66.7,59.4,54.8,85,69,46,29.94,29.79,9,0,9,0.00
2013-7-4,90.0,75.0,63.9,65.6,59.3,53.5,83,60,31,29.81,29.70,10,0,10,0.00
2013-7-5,75.1,73.9,72.9,54.9,54.5,54.1,52,51,49,29.75,29.75,0,0,1,0.00
2013-7-6,77.3,64.4,53.2,57.6,52.2,47.5,84,66,48,29.83,29.75,11,1,11,0.00
2013-7-7,76.3,65.3,57.8,58.8,54.3,50.3,80,68,52,29.89,29.80,10,1,10,0.00
2013-7-8,77.3,66.0,57.2,58.8,55.3,50.1,82,70,51,30.01,29.89,10,1,10,0.00
2013-7-9,82.3,68.0,56.9,63.2,57.0,51.8,86,70,44,30.06,29.94,12,0,12,0.00
2013-7-10,75.2,64.3,54.4,60.3,54.2,48.8,85,71,54,30.02,29.91,10,1,10,0.00
2013-7-11,74.2,63.8,57.2,58.0,53.3,49.5,82,70,53,29.98,29.90,10,1,10,0.00
2013-7-12,75.1,64.7,57.1,58.8,54.4,50.0,82,70,54,29.97,29.90,10,1,10,0.00
2013-7-13,78.1,64.8,50.5,60.3,53.2,46.1,89,68,44,30.00,29.92,10,1,10,0.00
2013-7-14,73.2,62.4,52.4,58.2,52.9,47.1,86,72,56,30.03,29.92,11,1,11,0.00
2013-7-15,73.8,62.4,55.0,57.3,52.5,48.6,82,71,53,29.97,29.85,11,1,11,0.00
2013-7-16,75.3,63.3,56.6,56.1,52.3,49.5,80,68,50,30.07,29.90,12,1,12,0.00
2013-7-17,73.8,63.6,56.1,58.3,53.8,49.6,80,71,57,30.13,30.06,11,1,11,0.00
2013-7-18,77.4,64.4,53.8,60.9,54.3,48.4,85,71,52,30.11,29.97,10,1,10,0.00
2013-7-19,76.0,64.0,53.2,59.4,53.9,47.8,86,71,53,30.00,29.86,10,0,10,0.00
2013-7-20,78.3,64.2,55.4,60.0,54.2,49.0,83,71,51,29.90,29.76,8,0,8,0.00
2013-7-21,76.0,64.6,57.0,59.6,55.0,51.2,84,72,55,29.91,29.81,9,1,9,0.00
2013-7-22,73.8,65.2,57.6,60.4,56.9,51.7,85,75,61,29.99,29.90,9,0,9,0.00
2013-7-23,75.8,67.0,61.2,61.9,57.7,55.1,85,73,58,30.03,29.97,9,0,9,0.00
2013-7-24,80.3,67.7,58.1,62.8,57.2,53.2,87,71,50,30.02,29.93,9,0,9,0.00
2013-7-25,76.0,65.1,55.5,60.6,55.6,50.9,87,72,55,30.07,29.97,9,1,9,0.00
2013-7-26,75.0,65.1,59.0,60.7,56.1,53.2,84,74,58,30.14,30.04,10,1,10,0.00
2013-7-27,73.4,64.7,58.3,60.5,56.2,51.9,84,75,61,30.08,29.90,10,1,11,0.00
2013-7-28,73.7,64.8,57.6,59.0,55.2,51.6,84,72,54,29.93,29.84,11,1,11,0.00
2013-7-29,75.7,64.2,52.2,58.7,52.7,46.3,85,67,52,30.05,29.88,9,0,9,0.00
2013-7-30,74.8,64.2,57.0,59.2,54.1,50.3,82,70,54,30.13,30.05,11,1,11,0.00
2013-7-31,77.3,64.8,56.1,59.1,52.6,46.5,82,66,41,30.13,30.05,12,0,12,0.00
2013-8-1,77.0,62.7,49.2,55.7,49.4,44.3,88,64,43,30.12,30.01,11,0,11,0.00
2013-8-2,78.0,62.4,48.8,58.4,50.8,43.9,88,67,41,30.02,29.93,10,1,10,0.00
2013-8-3,74.3,63.8,57.0,58.2,53.7,50.2,83,71,54,30.02,29.93,10,1,10,0.00
2013-8-4,73.2,62.8,57.0,57.2,53.6,49.3,83,73,54,30.05,29.97,11,1,11,0.00
2013-8-5,72.8,62.8,56.0,57.8,53.6,49.1,81,72,55,30.06,29.97,13,1,13,0.00
2013-8-6,77.3,63.7,56.7,59.2,53.5,50.9,82,70,48,30.08,30.01,10,0,10,0.00
2013-8-7,76.6,65.4,58.0,57.9,54.2,51.3,81,68,49,30.13,30.05,13,0,13,0.00
2013-8-8,73.5,63.5,55.9,58.5,53.9,49.5,84,72,55,30.07,29.96,12,1,12,0.00
2013-8-9,74.7,62.9,51.7,58.8,53.2,46.4,86,71,55,30.03,29.95,14,1,14,0.00
2013-8-10,77.0,64.7,58.5,60.3,55.1,52.2,82,72,52,30.08,30.02,11,0,11,0.00
2013-8-11,73.3,64.1,57.6,59.3,55.3,51.1,84,74,60,30.07,29.98,12,1,12,0.00
2013-8-12,82.0,66.5,59.0,61.1,56.2,52.1,85,71,45,30.02,29.95,10,0,10,0.00
2013-8-13,84.7,67.9,53.5,61.5,54.1,48.8,88,64,34,30.02,29.93,10,0,10,0.00
2013-8-14,82.2,66.8,52.7,60.7,55.0,48.2,88,68,38,30.02,29.94,12,1,12,0.00
2013-8-15,84.9,70.2,56.6,66.6,60.1,52.4,89,72,51,30.00,29.93,8,0,12,0.00
2013-8-16,83.8,70.9,62.8,65.3,59.6,51.5,89,70,43,30.02,29.96,12,0,12,0.00
2013-8-17,81.3,66.5,56.5,61.9,56.5,51.3,87,71,48,30.03,29.91,9,0,9,0.00
2013-8-18,87.8,71.4,60.3,65.7,59.5,54.8,87,68,44,29.92,29.79,8,0,8,0.00
2013-8-19,84.2,70.3,61.1,64.8,59.8,55.9,87,71,49,29.93,29.81,11,0,11,0.00
2013-8-20,78.7,68.6,61.1,62.9,57.8,52.6,85,70,52,29.92,29.83,11,0,11,0.00
2013-8-21,73.8,65.2,59.0,59.5,55.7,51.8,84,72,57,29.97,29.88,11,0,11,0.00
2013-8-22,75.0,64.1,56.6,58.5,54.2,50.6,84,71,52,30.00,29.91,12,1,12,0.00
2013-8-23,74.9,64.2,56.2,58.8,53.6,49.9,82,69,52,29.97,29.85,11,0,13,0.00
2013-8-24,82.3,66.1,51.9,61.6,55.4,47.5,89,70,47,29.94,29.88,11,0,11,0.00
2013-8-25,80.0,68.9,61.8,64.2,59.2,54.7,85,72,54,29.98,29.90,11,0,11,0.00
2013-8-26,77.8,67.3,58.7,60.2,55.1,48.4,82,66,46,30.04,29.94,11,1,11,0.00
2013-8-27,81.4,65.8,51.7,61.5,53.8,46.7,88,67,44,29.95,29.85,11,0,11,0.00
2013-8-28,81.3,67.2,54.4,64.4,57.6,49.9,90,73,54,29.98,29.89,10,0,10,0.00
2013-8-29,81.0,70.1,63.1,64.8,59.9,56.6,83,71,51,30.08,29.98,11,0,11,0.00
2013-8-30,88.6,72.3,59.5,66.6,58.1,51.8,89,64,36,30.07,29.94,11,0,11,0.00
2013-8-31,79.2,67.9,54.4,62.5,56.5,49.7,88,68,49,30.01,29.91,14,1,14,0.00
2013-9-1,79.7,69.3,60.3,62.3,57.0,54.2,84,66,46,29.98,29.90,11,0,11,0.00
2013-9-2,79.8,69.7,64.2,64.7,60.4,57.8,83,73,58,29.99,29.90,3,0,10,0.00
2013-9-3,81.4,67.1,54.3,58.0,54.6,50.2,90,67,36,30.04,29.97,3,0,13,0.00
2013-9-4,81.0,66.1,53.6,61.3,54.5,49.3,90,68,39,30.07,29.98,10,1,14,0.00
2013-9-5,80.5,66.5,55.3,58.0,54.0,50.4,89,66,39,30.05,30.00,11,1,11,0.00
2013-9-6,88.5,70.0,51.1,59.0,52.0,46.4,90,57,31,30.03,29.84,7,0,7,0.00
2013-9-7,93.5,73.0,55.5,62.1,53.3,48.0,81,54,24,29.90,29.81,7,0,7,0.00
2013-9-8,83.0,67.8,55.0,63.8,57.1,50.3,88,70,50,29.91,29.78,11,0,11,0.00
2013-9-9,84.2,68.0,55.7,65.6,58.0,51.6,89,72,49,29.85,29.73,8,0,8,0.00
2013-9-10,78.8,67.4,58.5,62.1,57.6,53.5,88,72,51,29.93,29.77,9,0,9,0.00
2013-9-11,75.3,65.3,56.2,60.2,55.3,51.1,86,71,55,30.02,29.92,10,0,10,0.00
2013-9-12,75.5,65.5,58.5,62.2,57.0,53.0,84,75,60,30.01,29.91,10,0,10,0.00
2013-9-13,74.9,64.7,58.6,60.2,55.2,51.0,85,72,54,29.95,29.81,11,1,11,0.00
2013-9-14,73.8,62.9,54.9,59.5,53.5,49.6,85,72,57,29.87,29.79,11,0,11,0.00
2013-9-15,77.7,63.8,51.7,59.2,54.1,47.4,88,72,51,29.91,29.84,12,0,12,0.00
2013-9-16,80.0,65.5,55.5,62.5,55.2,50.9,89,71,45,29.93,29.83,10,0,10,0.00
2013-9-17,76.0,63.6,55.7,56.0,52.4,48.6,87,68,45,29.93,29.88,18,1,18,0.00
2013-9-18,83.6,64.9,49.9,55.2,48.5,43.2,88,60,26,29.95,29.84,4,0,9,0.00
2013-9-19,87.2,66.3,48.2,57.6,48.6,43.0,89,57,25,29.89,29.76,9,0,9,0.00
2013-9-20,75.5,63.4,49.2,60.9,53.7,43.6,87,71,55,29.91,29.81,7,0,10,0.00
2013-9-21,67.7,62.0,55.4,60.2,55.8,51.6,89,80,67,29.94,29.84,7,0,9,0.15
2013-9-22,72.8,60.3,48.9,57.6,51.2,45.8,91,74,47,30.04,29.93,12,0,12,0.03
2013-9-23,79.0,64.9,50.3,58.8,53.0,46.3,90,67,45,30.05,29.95,8,0,9,0.00
2013-9-24,74.8,63.3,54.6,55.1,51.7,47.8,87,68,44,30.03,29.96,14,1,14,0.01
2013-9-25,69.9,60.0,53.4,48.9,46.8,44.1,78,63,43,29.98,29.88,10,1,13,0.00
2013-9-26,73.3,58.8,44.4,47.1,41.7,37.4,87,57,29,30.01,29.87,11,0,11,0.00
2013-9-27,77.0,60.1,44.2,48.2,40.7,36.4,86,53,25,30.13,30.01,7,0,7,0.00
2013-9-28,80.0,62.0,44.6,53.2,45.1,38.2,83,58,27,30.12,30.01,7,0,7,0.00
2013-9-29,76.7,63.4,50.7,59.6,53.7,46.4,89,72,54,30.14,30.07,10,0,10,0.00
2013-9-30,76.2,64.7,55.3,61.9,55.7,42.4,90,73,54,30.11,29.99,10,0,10,0.00
2013-10-1,72.3,60.6,49.4,53.2,47.6,42.8,86,64,46,30.05,29.95,9,0,9,0.00
2013-10-2,75.3,59.0,47.6,55.7,46.2,40.2,87,65,36,30.05,29.96,11,0,11,0.00
2013-10-3,72.0,58.3,43.8,46.8,40.1,34.1,87,54,29,30.11,29.98,13,0,13,0.00
2013-10-4,78.4,65.1,50.6,40.7,36.8,33.3,61,37,21,30.12,30.00,12,0,12,0.00
2013-10-5,82.5,63.2,45.5,44.1,37.6,33.2,71,43,19,30.22,30.11,7,0,7,0.00
2013-10-6,82.3,62.8,45.0,50.4,41.1,36.0,76,48,23,30.15,30.02,6,0,6,0.00
2013-10-7,81.5,63.5,47.3,51.4,39.5,31.1,73,45,19,30.02,29.89,7,0,7,0.00
2013-10-8,74.8,58.6,45.6,53.2,43.9,38.2,86,60,35,29.94,29.76,9,0,9,0.00
2013-10-9,67.0,55.4,45.0,48.5,43.1,39.8,87,65,43,29.79,29.67,7,0,7,0.00
2013-10-10,70.7,56.1,44.3,50.8,44.5,38.1,83,67,45,30.05,29.79,9,0,9,0.00
2013-10-11,65.8,54.5,46.6,53.0,47.0,42.2,87,76,60,30.12,30.01,8,0,8,0.00
2013-10-12,68.3,55.2,43.7,54.1,45.8,39.7,89,72,41,30.04,29.94,11,0,11,0.00
2013-10-13,71.3,57.2,44.0,51.6,43.8,39.8,89,64,37,30.09,29.96,6,0,6,0.00
2013-10-14,76.0,58.5,42.0,46.4,41.0,36.9,86,57,29,30.15,30.01,7,0,7,0.00
2013-10-15,77.5,59.9,43.6,46.2,39.4,36.9,82,51,25,30.07,29.96,6,0,6,0.00
2013-10-16,79.4,60.4,43.3,49.0,39.4,35.9,80,50,25,30.11,30.02,7,0,7,0.00
2013-10-17,78.7,60.1,44.3,49.5,39.8,35.9,78,51,24,30.11,29.98,7,0,7,0.00
2013-10-18,74.0,57.4,42.6,55.2,44.7,35.1,83,64,43,30.08,30.00,5,0,5,0.00
2013-10-19,76.7,58.7,43.4,55.5,47.1,39.2,89,68,39,30.11,30.00,6,0,6,0.00
2013-10-20,70.0,55.1,43.3,56.1,47.1,39.1,89,76,55,30.06,29.94,3,0,5,0.00
2013-10-21,67.1,54.8,45.0,53.9,47.7,40.8,89,78,62,30.04,29.94,7,0,7,0.00
2013-10-22,69.7,55.1,44.7,55.6,48.0,40.5,89,78,59,30.06,29.95,7,0,7,0.00
2013-10-23,63.6,54.1,48.2,53.8,48.5,43.6,89,82,69,30.02,29.93,6,0,6,0.00
2013-10-24,60.6,53.1,45.7,50.3,47.3,41.3,87,81,67,30.14,30.01,7,0,7,0.00
2013-10-25,66.8,52.9,41.6,52.8,45.5,38.0,91,77,57,30.20,30.11,7,0,7,0.00
2013-10-26,74.1,56.2,42.6,55.7,46.9,39.2,90,73,47,30.18,30.04,6,0,6,0.00
2013-10-27,65.0,52.1,42.0,51.0,44.9,38.1,90,77,57,30.06,29.72,28,1,28,0.00
2013-10-28,64.2,56.0,50.4,47.6,45.7,43.6,81,69,51,29.89,29.72,15,1,15,0.00
2013-10-29,62.6,54.3,45.0,49.5,45.9,39.7,83,74,59,30.09,29.89,6,0,6,0.00
2013-10-30,65.1,51.7,40.2,50.0,42.6,36.5,90,73,48,30.18,30.09,7,0,7,0.00
2013-10-31,70.9,54.3,40.0,49.7,42.8,36.2,89,68,40,30.21,30.09,3,0,6,0.00
2013-11-1,72.6,55.7,41.5,47.6,43.1,37.3,88,66,36,30.17,30.03,6,0,6,0.00
2013-11-2,67.0,53.6,42.1,52.9,45.2,37.7,88,74,58,30.06,29.95,10,0,10,0.00
2013-11-3,63.4,50.9,39.3,45.3,37.3,30.4,89,63,30,30.08,29.95,7,0,7,0.00
2013-11-4,65.4,50.3,36.6,42.8,34.9,31.3,86,59,29,30.10,29.95,10,0,10,0.00
2013-11-5,70.9,53.8,39.1,42.0,36.6,32.8,83,56,28,30.25,30.10,5,0,5,0.00
2013-11-6,71.4,55.2,40.9,47.3,39.9,34.9,83,59,31,30.28,30.18,2,0,2,0.00
2013-11-7,72.2,56.1,45.0,49.6,43.1,38.1,81,64,33,30.20,30.10,5,0,5,0.00
2013-11-8,69.7,54.7,43.1,54.1,45.0,38.6,88,71,52,30.12,29.99,7,0,7,0.00
2013-11-9,69.3,53.5,41.3,52.0,44.6,37.3,89,73,49,30.07,29.99,5,0,5,0.00
2013-11-10,62.9,50.8,41.8,51.0,44.6,37.9,90,80,64,30.15,30.06,6,0,6,0.00
2013-11-11,65.2,56.1,47.2,51.5,48.5,43.2,87,77,56,30.19,30.10,4,0,4,0.00
2013-11-12,70.0,57.9,47.9,53.6,48.4,42.0,86,72,47,30.29,30.18,7,0,7,0.00
2013-11-13,73.5,55.9,43.9,54.8,47.0,39.7,89,74,45,30.28,30.14,7,0,7,0.00
2013-11-14,62.6,54.0,47.2,53.4,48.0,42.6,89,80,66,30.15,29.92,4,0,9,0.00
2013-11-15,65.6,51.3,40.6,46.0,40.4,36.7,89,69,38,29.92,29.76,6,0,6,0.00
2013-11-16,62.7,49.5,38.9,48.1,41.5,34.6,89,75,52,29.97,29.81,9,0,10,0.00
2013-11-17,61.9,49.4,39.8,48.2,42.2,36.2,90,77,60,30.12,29.96,9,0,9,0.00
2013-11-18,61.2,49.2,39.4,48.5,42.3,35.8,90,78,56,30.18,30.11,6,0,6,0.00
2013-11-19,62.9,55.0,46.3,54.2,49.4,41.2,89,81,63,30.14,29.98,4,0,4,0.11
2013-11-20,61.3,55.4,48.3,58.2,52.2,45.2,91,89,87,29.98,29.88,4,0,4,0.71
2013-11-21,59.6,53.1,49.7,49.0,40.9,28.2,91,67,34,30.02,29.93,11,0,11,0.01
2013-11-22,67.0,52.5,37.5,35.8,30.2,20.5,78,46,21,30.06,29.93,8,0,8,0.00
2013-11-23,65.0,49.2,37.1,40.2,35.9,31.4,84,63,33,30.13,29.99,7,0,7,0.00
2013-11-24,63.2,48.0,36.1,46.2,38.6,32.3,89,72,46,30.28,30.13,3,0,4,0.00
2013-11-25,63.5,48.2,36.0,46.2,39.2,32.2,89,73,47,30.35,30.27,4,0,4,0.00
2013-11-26,61.7,49.7,39.7,46.2,41.2,35.6,89,74,52,30.29,30.06,7,0,7,0.00
2013-11-27,63.7,50.8,39.2,47.9,42.4,35.1,89,74,53,30.06,29.86,4,0,4,0.00
2013-11-28,66.7,52.4,43.6,47.6,42.7,38.7,89,71,45,30.11,29.90,5,0,5,0.00
2013-11-29,67.0,50.6,38.9,48.6,40.9,35.0,89,72,45,30.25,30.10,5,0,5,0.00
2013-11-30,63.6,49.3,38.6,51.2,41.8,34.6,90,76,55,30.29,30.21,6,0,6,0.00
2013-12-1,66.1,50.5,38.0,51.0,42.3,34.4,90,75,54,30.37,30.24,6,0,6,0.00
2013-12-2,63.7,49.4,38.1,51.9,43.4,34.2,91,80,64,30.27,30.01,9,0,9,0.00
2013-12-3,54.9,48.3,35.2,49.2,38.8,29.7,89,70,49,30.02,29.89,14,0,14,0.00
2013-12-4,52.2,38.3,28.6,32.0,26.2,21.2,87,65,33,30.11,29.97,9,0,9,0.00
2013-12-5,51.1,35.8,24.4,25.3,21.3,17.5,83,59,29,30.20,30.11,5,0,5,0.00
2013-12-6,54.2,41.9,28.9,45.5,33.0,23.2,87,72,44,30.22,29.95,11,0,12,0.27
2013-12-7,49.4,41.4,30.6,45.8,31.8,24.5,89,70,43,30.27,29.95,18,0,18,0.06
2013-12-8,45.3,34.7,26.6,28.4,23.9,19.5,85,66,44,30.36,30.26,7,0,7,0.00
2013-12-9,49.6,34.8,24.6,25.7,21.3,18.0,82,61,31,30.44,30.35,7,0,7,0.00
2013-12-10,52.3,37.0,25.6,31.3,25.6,20.2,85,65,40,30.44,30.24,3,0,5,0.00
2013-12-11,55.7,39.6,28.1,33.3,27.8,22.8,85,65,39,30.28,30.20,6,0,6,0.00
2013-12-12,58.4,40.9,27.9,39.3,30.2,22.9,86,68,39,30.29,30.19,4,0,4,0.00
2013-12-13,58.7,42.0,30.3,43.3,33.5,26.3,88,73,51,30.36,30.26,5,0,5,0.00
2013-12-14,60.4,43.2,30.9,41.7,33.0,26.5,88,69,42,30.42,30.33,6,0,6,0.00
2013-12-15,61.2,43.8,31.1,41.1,33.7,26.8,88,69,42,30.40,30.26,6,0,6,0.00
2013-12-16,67.5,47.8,34.6,41.8,35.3,29.8,88,65,34,30.27,30.14,4,0,4,0.00
2013-12-17,63.4,48.0,36.4,43.8,37.6,31.4,86,69,42,30.20,30.06,5,0,5,0.00
2013-12-18,60.6,47.4,38.1,47.5,40.6,33.6,87,77,58,30.06,29.83,6,0,6,0.00
2013-12-19,57.7,46.9,37.1,42.5,36.3,28.9,88,68,41,29.97,29.76,19,0,19,0.00
2013-12-20,59.9,43.6,30.3,30.1,24.3,14.3,80,52,18,30.04,29.96,4,0,4,0.00
2013-12-21,60.4,45.7,34.4,47.7,36.9,26.2,85,72,60,30.11,30.00,9,0,9,0.00
2013-12-22,66.8,48.3,35.5,47.5,37.0,32.0,90,68,35,30.31,30.11,6,0,6,0.00
2013-12-23,61.7,46.3,35.3,44.7,37.2,31.0,88,72,48,30.41,30.31,5,0,5,0.00
2013-12-24,69.5,48.9,35.9,46.3,38.0,31.8,88,69,37,30.37,30.23,5,0,5,0.00
2013-12-25,65.2,47.1,33.9,43.8,36.6,29.6,88,69,43,30.32,30.21,3,0,3,0.00
2013-12-26,66.8,47.3,33.4,44.5,36.9,29.4,88,69,38,30.28,30.18,3,0,3,0.00
2013-12-27,60.0,45.0,33.2,44.9,36.9,28.9,88,74,52,30.26,30.14,2,0,2,0.00
2013-12-28,64.7,45.3,32.1,43.6,33.0,28.4,89,66,33,30.18,30.05,4,0,4,0.00
2013-12-29,67.5,46.8,33.5,37.8,29.5,23.6,79,56,22,30.20,30.11,4,0,4,0.00
2013-12-30,63.5,44.8,31.5,39.0,32.2,25.5,84,63,34,30.28,30.20,5,0,5,0.00
2013-12-31,58.5,43.6,33.9,45.2,36.0,28.7,86,75,57,30.30,30.17,7,0,7,0.00
2014-1-1,60.0,44.4,31.6,44.3,35.9,27.6,88,73,54,30.25,30.15,4,0,4,0.00
2014-1-2,65.0,47.4,33.9,41.3,35.0,29.2,86,65,33,30.20,30.08,6,0,6,0.00